TimePST,TemperatureF,Dew PointF,Humidity,Sea Level PressureIn,VisibilityMPH,Wind Direction,Wind SpeedMPH,Gust SpeedMPH,PrecipitationIn,Events,Conditions,WindDirDegrees,DateUTC
12:10 AM,41.0,41.0,100,30.16,0.8,West,3.5,-,N/A,,Overcast,270,2012-11-25 08:10:00
12:30 AM,41.0,41.0,100,30.15,4.0,West,3.5,-,N/A,,Overcast,280,2012-11-25 08:30:00
12:50 AM,41.0,41.0,100,30.16,10.0,West,3.5,-,N/A,,Overcast,280,2012-11-25 08:50:00
1:10 AM,41.0,41.0,100,30.15,10.0,Calm,Calm,-,N/A,,Overcast,0,2012-11-25 09:10:00
1:30 AM,41.0,41.0,100,30.15,10.0,Calm,Calm,-,N/A,,Overcast,0,2012-11-25 09:30:00
1:50 AM,41.0,41.0,100,30.15,9.0,Calm,Calm,-,N/A,,Overcast,0,2012-11-25 09:50:00
2:10 AM,41.0,41.0,100,30.15,10.0,West,3.5,-,N/A,,Overcast,260,2012-11-25 10:10:00
2:30 AM,41.0,41.0,100,30.15,10.0,West,3.5,-,N/A,,Overcast,270,2012-11-25 10:30:00
2:50 AM,41.0,41.0,100,30.15,10.0,WNW,3.5,-,N/A,,Overcast,290,2012-11-25 10:50:00
3:30 AM,41.0,41.0,100,30.14,4.0,Calm,Calm,-,N/A,,Overcast,0,2012-11-25 11:30:00
3:50 AM,41.0,41.0,100,30.14,1.8,WNW,3.5,-,N/A,,Overcast,290,2012-11-25 11:50:00
4:10 AM,41.0,41.0,100,30.14,1.0,West,3.5,-,N/A,,Overcast,280,2012-11-25 12:10:00
4:30 AM,41.0,41.0,100,30.14,2.5,WNW,4.6,-,N/A,,Overcast,290,2012-11-25 12:30:00
4:50 AM,41.0,41.0,100,30.14,5.0,West,3.5,-,N/A,,Overcast,280,2012-11-25 12:50:00
5:10 AM,41.0,39.2,93,30.14,2.0,West,4.6,-,N/A,,Overcast,270,2012-11-25 13:10:00
5:30 AM,41.0,41.0,100,30.14,2.0,Calm,Calm,-,N/A,,Overcast,0,2012-11-25 13:30:00
5:50 AM,41.0,39.2,93,30.14,1.8,West,3.5,-,N/A,,Overcast,270,2012-11-25 13:50:00
6:10 AM,41.0,41.0,100,30.14,1.2,West,3.5,-,N/A,,Overcast,270,2012-11-25 14:10:00
6:30 AM,41.0,41.0,100,30.14,1.5,Calm,Calm,-,N/A,,Overcast,0,2012-11-25 14:30:00
6:50 AM,41.0,41.0,100,30.14,2.5,Calm,Calm,-,N/A,,Overcast,0,2012-11-25 14:50:00
7:10 AM,41.0,41.0,100,30.14,6.0,Calm,Calm,-,N/A,,Overcast,0,2012-11-25 15:10:00
7:30 AM,41.0,41.0,100,30.14,9.0,Calm,Calm,-,N/A,,Overcast,0,2012-11-25 15:30:00
7:50 AM,41.0,41.0,100,30.15,8.0,Calm,Calm,-,N/A,,Overcast,0,2012-11-25 15:50:00
8:10 AM,41.0,41.0,100,30.15,9.0,North,3.5,-,N/A,,Overcast,360,2012-11-25 16:10:00
8:30 AM,41.0,41.0,100,30.16,9.0,Calm,Calm,-,N/A,,Overcast,0,2012-11-25 16:30:00
8:50 AM,41.0,41.0,100,30.15,10.0,WNW,3.5,-,N/A,,Overcast,290,2012-11-25 16:50:00
9:10 AM,41.0,39.2,93,30.16,10.0,Calm,Calm,-,N/A,,Overcast,0,2012-11-25 17:10:00
9:30 AM,42.8,39.2,87,30.15,10.0,SSW,3.5,-,N/A,,Overcast,210,2012-11-25 17:30:00
9:50 AM,42.8,39.2,87,30.15,10.0,Calm,Calm,-,N/A,,Overcast,0,2012-11-25 17:50:00
10:10 AM,44.6,39.2,81,30.15,10.0,Calm,Calm,-,N/A,,Overcast,0,2012-11-25 18:10:00
10:30 AM,44.6,41.0,87,30.15,10.0,ENE,3.5,-,N/A,,Overcast,60,2012-11-25 18:30:00
10:50 AM,44.6,39.2,81,30.14,10.0,Calm,Calm,-,N/A,,Overcast,0,2012-11-25 18:50:00
11:10 AM,44.6,41.0,87,30.13,10.0,East,3.5,-,N/A,,Overcast,90,2012-11-25 19:10:00
11:30 AM,44.6,41.0,87,30.12,10.0,Calm,Calm,-,N/A,,Overcast,0,2012-11-25 19:30:00
11:50 AM,46.4,41.0,81,30.11,10.0,SSE,3.5,-,N/A,,Overcast,160,2012-11-25 19:50:00
12:10 PM,46.4,41.0,81,30.10,10.0,Calm,Calm,-,N/A,,Mostly Cloudy,0,2012-11-25 20:10:00
12:30 PM,48.2,42.8,82,30.09,10.0,ENE,3.5,-,N/A,,Partly Cloudy,70,2012-11-25 20:30:00
12:50 PM,50.0,44.6,82,30.08,10.0,East,3.5,-,N/A,,Clear,90,2012-11-25 20:50:00
1:10 PM,50.0,44.6,82,30.07,10.0,Calm,Calm,-,N/A,,Clear,0,2012-11-25 21:10:00
1:30 PM,50.0,44.6,82,30.06,10.0,Calm,Calm,-,N/A,,Clear,0,2012-11-25 21:30:00
1:50 PM,50.0,44.6,82,30.06,10.0,Calm,Calm,-,N/A,,Clear,0,2012-11-25 21:50:00
2:10 PM,51.8,44.6,76,30.05,10.0,Calm,Calm,-,N/A,,Clear,0,2012-11-25 22:10:00
2:30 PM,53.6,44.6,72,30.05,10.0,Calm,Calm,-,N/A,,Clear,0,2012-11-25 22:30:00
2:50 PM,53.6,46.4,77,30.04,10.0,Calm,Calm,-,N/A,,Clear,0,2012-11-25 22:50:00
3:10 PM,53.6,46.4,77,30.04,10.0,Calm,Calm,-,N/A,,Clear,0,2012-11-25 23:10:00
3:30 PM,53.6,44.6,72,30.04,10.0,Calm,Calm,-,N/A,,Clear,0,2012-11-25 23:30:00
3:50 PM,50.0,46.4,87,30.04,10.0,Calm,Calm,-,N/A,,Clear,0,2012-11-25 23:50:00
4:10 PM,48.2,46.4,93,30.04,10.0,Calm,Calm,-,N/A,,Clear,0,2012-11-26 00:10:00
4:30 PM,46.4,46.4,100,30.04,10.0,WNW,3.5,-,N/A,,Clear,290,2012-11-26 00:30:00
4:50 PM,46.4,44.6,93,30.05,8.0,WNW,4.6,-,N/A,,Clear,290,2012-11-26 00:50:00
5:10 PM,46.4,44.6,93,30.05,10.0,Calm,Calm,-,N/A,,Clear,0,2012-11-26 01:10:00
5:30 PM,44.6,42.8,93,30.05,10.0,West,3.5,-,N/A,,Clear,270,2012-11-26 01:30:00
5:50 PM,42.8,42.8,100,30.06,10.0,West,4.6,-,N/A,,Clear,270,2012-11-26 01:50:00
6:10 PM,42.8,41.0,93,30.06,10.0,West,3.5,-,N/A,,Partly Cloudy,270,2012-11-26 02:10:00
6:30 PM,42.8,41.0,93,30.07,10.0,West,4.6,-,N/A,,Partly Cloudy,270,2012-11-26 02:30:00
6:50 PM,41.0,39.2,93,30.07,10.0,Calm,Calm,-,N/A,,Clear,0,2012-11-26 02:50:00
7:10 PM,39.2,39.2,100,30.07,3.0,West,3.5,-,N/A,,Clear,270,2012-11-26 03:10:00
7:30 PM,39.2,39.2,100,30.08,4.0,WNW,4.6,-,N/A,,Clear,290,2012-11-26 03:30:00
7:50 PM,39.2,39.2,100,30.09,5.0,West,4.6,-,N/A,,Clear,270,2012-11-26 03:50:00
8:10 PM,39.2,37.4,93,30.09,3.0,West,5.8,-,N/A,,Clear,280,2012-11-26 04:10:00
8:30 PM,37.4,37.4,100,30.09,3.0,West,4.6,-,N/A,,Clear,270,2012-11-26 04:30:00
8:50 PM,37.4,37.4,100,30.09,3.0,West,3.5,-,N/A,,Clear,270,2012-11-26 04:50:00
9:10 PM,37.4,37.4,100,30.09,3.0,WNW,4.6,-,N/A,,Clear,290,2012-11-26 05:10:00
9:30 PM,37.4,37.4,100,30.10,5.0,West,4.6,-,N/A,,Scattered Clouds,280,2012-11-26 05:30:00
9:50 PM,37.4,35.6,93,30.10,3.0,West,4.6,-,N/A,,Partly Cloudy,270,2012-11-26 05:50:00
10:10 PM,35.6,35.6,100,30.10,1.5,Calm,Calm,-,N/A,,Scattered Clouds,0,2012-11-26 06:10:00
10:30 PM,37.4,35.6,93,30.10,3.0,West,3.5,-,N/A,,Mostly Cloudy,270,2012-11-26 06:30:00
10:50 PM,37.4,35.6,93,30.10,5.0,West,4.6,-,N/A,,Overcast,280,2012-11-26 06:50:00
11:10 PM,35.6,35.6,100,30.10,7.0,West,4.6,-,N/A,,Mostly Cloudy,260,2012-11-26 07:10:00
11:30 PM,35.6,35.6,100,30.10,7.0,WNW,3.5,-,N/A,,Partly Cloudy,290,2012-11-26 07:30:00
11:50 PM,35.6,33.8,93,30.10,5.0,West,3.5,-,N/A,,Mostly Cloudy,270,2012-11-26 07:50:00